(°C)
(°C)
-1°
-2°
-2°
-3°
-3°
-3°
-3°
ÉK
ÉK
ÉK
ÉK
ÉK
ÉK
ÉK
(km/h)
7-13
8-14
9-16
10-17
10-17
10-17
10-18
(mm)
0
0
0
0
0
0
0
(%)
0
0
0
0
0
0
0

Napfelkelte

/ -36.2°
sun-icon
UV 3
07:14
19:40
Hold (növekvő félhold) (172°)
19:54
06:00

METAR 51.15°É 51.54°K (UARR)-ért

Idő Feltételek Hőmérséklet/
Harmatpont
Szél Látási viszonyok Időjárás Felhők Légnyomás Módosítás Nyers
VFR 3°C / -3°C 40º 6kt >10km - Clouds and Visibility OK 1024 No Significant change UARR 191900Z 04003MPS CAVOK 03/M03 Q1024 R04/CLRD70 NOSIG RMK QFE765/1020
VFR 3°C / -5°C 30º 6kt >10km - Clouds and Visibility OK 1025 No Significant change UARR 191830Z 03003MPS CAVOK 03/M05 Q1025 R04/CLRD70 NOSIG RMK QFE765/1020
VFR 4°C / -4°C 40º 6kt >10km - Clouds and Visibility OK 1024 No Significant change UARR 191800Z 04003MPS CAVOK 04/M04 Q1024 R04/CLRD70 NOSIG RMK QFE765/1020
VFR 5°C / -5°C 40º 4kt >10km - Clouds and Visibility OK 1024 No Significant change UARR 191730Z 04002MPS CAVOK 05/M05 Q1024 R04/CLRD70 NOSIG RMK QFE765/1020
VFR 6°C / -4°C 50º 4kt >10km - Clouds and Visibility OK 1024 No Significant change UARR 191700Z 05002MPS CAVOK 06/M04 Q1024 R04/CLRD70 NOSIG RMK QFE764/1019
VFR 6°C / -4°C 50º 4kt >10km - Clouds and Visibility OK 1024 No Significant change UARR 191630Z 05002MPS CAVOK 06/M04 Q1024 R04/CLRD70 NOSIG RMK QFE764/1019
VFR 8°C / -3°C 40º 2kt >10km - Clouds and Visibility OK 1024 No Significant change UARR 191600Z 04001MPS CAVOK 08/M03 Q1024 R04/CLRD70 NOSIG RMK QFE764/1019
VFR 10°C / -3°C 40º 4kt >10km - Clouds and Visibility OK 1024 No Significant change UARR 191530Z 04002MPS CAVOK 10/M03 Q1024 R04/CLRD70 NOSIG RMK QFE764/1019
VFR 10°C / -3°C 360º 4kt >10km - Clouds and Visibility OK 1024 No Significant change UARR 191500Z 36002MPS CAVOK 10/M03 Q1024 R04/CLRD70 NOSIG RMK QFE764/1019
VFR 12°C / -4°C 340º 4kt >10km - Clouds and Visibility OK 1024 No Significant change UARR 191430Z 34002MPS CAVOK 12/M04 Q1024 R04/CLRD70 NOSIG RMK QFE764/1019
VFR 13°C / -3°C 20º 4kt >10km - Clouds and Visibility OK 1024 No Significant change UARR 191400Z 02002MPS CAVOK 13/M03 Q1024 R04/CLRD70 NOSIG RMK QFE764/1019
VFR 13°C / -3°C 30º variable 350º to 090º 4kt >10km - Clouds and Visibility OK 1024 No Significant change UARR 191330Z 03002MPS 350V090 CAVOK 13/M03 Q1024 R04/CLRD70 NOSIG RMK QFE764/1019
VFR 14°C / -3°C variable 2kt >10km - Clouds and Visibility OK 1024 No Significant change UARR 191300Z VRB01MPS CAVOK 14/M03 Q1024 R04/CLRD70 NOSIG RMK QFE764/1019
VFR 14°C / -2°C 30º variable 330º to 080º 6kt >10km - Clouds and Visibility OK 1024 No Significant change UARR 191230Z 03003MPS 330V080 CAVOK 14/M02 Q1024 R04/CLRD70 NOSIG RMK QFE764/1019
VFR 13°C / -2°C 360º variable 320º to 060º 4kt >10km - Clouds and Visibility OK 1024 No Significant change UARR 191200Z 36002MPS 320V060 CAVOK 13/M02 Q1024 R04/CLRD70 NOSIG RMK QFE764/1019
VFR 14°C / -3°C 50º variable 340º to 100º 4kt >10km - Clouds and Visibility OK 1024 No Significant change UARR 191130Z 05002MPS 340V100 CAVOK 14/M03 Q1024 R04/CLRD70 NOSIG RMK QFE764/1019
VFR 14°C / -3°C 10º variable 310º to 050º 6kt >10km - Clouds and Visibility OK 1024 No Significant change UARR 191100Z 01003MPS 310V050 CAVOK 14/M03 Q1024 R04/CLRD70 NOSIG RMK QFE765/1020
VFR 13°C / -2°C 10º variable 310º to 090º 4kt >10km - Clouds and Visibility OK 1024 No Significant change UARR 191030Z 01002MPS 310V090 CAVOK 13/M02 Q1024 R04/CLRD70 NOSIG RMK QFE765/1020
VFR 13°C / -2°C 360º variable 310º to 080º 6kt >10km - Clouds and Visibility OK 1024 No Significant change UARR 191000Z 36003MPS 310V080 CAVOK 13/M02 Q1024 R04/CLRD70 NOSIG RMK QFE765/1020
VFR 13°C / -2°C 360º 8kt >10km - Clouds and Visibility OK 1024 No Significant change UARR 190930Z 36004MPS CAVOK 13/M02 Q1024 R04/CLRD70 NOSIG RMK QFE765/1020
VFR 12°C / -2°C 340º 6kt >10km - Clouds and Visibility OK 1025 No Significant change UARR 190900Z 34003MPS CAVOK 12/M02 Q1025 R04/CLRD70 NOSIG RMK QFE765/1020
VFR 12°C / -1°C 10º variable 310º to 060º 6kt >10km - Clouds and Visibility OK 1025 No Significant change UARR 190830Z 01003MPS 310V060 CAVOK 12/M01 Q1025 R04/CLRD70 NOSIG RMK QFE765/1020
VFR 11°C / -2°C 40º variable 340º to 130º 6kt >10km - Clouds and Visibility OK 1025 No Significant change UARR 190800Z 04003MPS 340V130 CAVOK 11/M02 Q1025 R04/CLRD70 NOSIG RMK QFE765/1020
VFR 11°C / -2°C 340º 4kt >10km - Clouds and Visibility OK 1025 No Significant change UARR 190730Z 34002MPS CAVOK 11/M02 Q1025 R04/CLRD70 NOSIG RMK QFE765/1020

VFR

3°C / -3°C

[Több]
Szél 40º 6kt
Látási viszonyok >10km
Időjárás -
Felhők Clouds and Visibility OK
Légnyomás 1024
Módosítás No Significant change
Nyers UARR 191900Z 04003MPS CAVOK 03/M03 Q1024 R04/CLRD70 NOSIG RMK QFE765/1020

VFR

3°C / -5°C

[Több]
Szél 30º 6kt
Látási viszonyok >10km
Időjárás -
Felhők Clouds and Visibility OK
Légnyomás 1025
Módosítás No Significant change
Nyers UARR 191830Z 03003MPS CAVOK 03/M05 Q1025 R04/CLRD70 NOSIG RMK QFE765/1020

VFR

4°C / -4°C

[Több]
Szél 40º 6kt
Látási viszonyok >10km
Időjárás -
Felhők Clouds and Visibility OK
Légnyomás 1024
Módosítás No Significant change
Nyers UARR 191800Z 04003MPS CAVOK 04/M04 Q1024 R04/CLRD70 NOSIG RMK QFE765/1020

VFR

5°C / -5°C

[Több]
Szél 40º 4kt
Látási viszonyok >10km
Időjárás -
Felhők Clouds and Visibility OK
Légnyomás 1024
Módosítás No Significant change
Nyers UARR 191730Z 04002MPS CAVOK 05/M05 Q1024 R04/CLRD70 NOSIG RMK QFE765/1020

VFR

6°C / -4°C

[Több]
Szél 50º 4kt
Látási viszonyok >10km
Időjárás -
Felhők Clouds and Visibility OK
Légnyomás 1024
Módosítás No Significant change
Nyers UARR 191700Z 05002MPS CAVOK 06/M04 Q1024 R04/CLRD70 NOSIG RMK QFE764/1019

VFR

6°C / -4°C

[Több]
Szél 50º 4kt
Látási viszonyok >10km
Időjárás -
Felhők Clouds and Visibility OK
Légnyomás 1024
Módosítás No Significant change
Nyers UARR 191630Z 05002MPS CAVOK 06/M04 Q1024 R04/CLRD70 NOSIG RMK QFE764/1019

VFR

8°C / -3°C

[Több]
Szél 40º 2kt
Látási viszonyok >10km
Időjárás -
Felhők Clouds and Visibility OK
Légnyomás 1024
Módosítás No Significant change
Nyers UARR 191600Z 04001MPS CAVOK 08/M03 Q1024 R04/CLRD70 NOSIG RMK QFE764/1019

VFR

10°C / -3°C

[Több]
Szél 40º 4kt
Látási viszonyok >10km
Időjárás -
Felhők Clouds and Visibility OK
Légnyomás 1024
Módosítás No Significant change
Nyers UARR 191530Z 04002MPS CAVOK 10/M03 Q1024 R04/CLRD70 NOSIG RMK QFE764/1019

VFR

10°C / -3°C

[Több]
Szél 360º 4kt
Látási viszonyok >10km
Időjárás -
Felhők Clouds and Visibility OK
Légnyomás 1024
Módosítás No Significant change
Nyers UARR 191500Z 36002MPS CAVOK 10/M03 Q1024 R04/CLRD70 NOSIG RMK QFE764/1019

VFR

12°C / -4°C

[Több]
Szél 340º 4kt
Látási viszonyok >10km
Időjárás -
Felhők Clouds and Visibility OK
Légnyomás 1024
Módosítás No Significant change
Nyers UARR 191430Z 34002MPS CAVOK 12/M04 Q1024 R04/CLRD70 NOSIG RMK QFE764/1019

VFR

13°C / -3°C

[Több]
Szél 20º 4kt
Látási viszonyok >10km
Időjárás -
Felhők Clouds and Visibility OK
Légnyomás 1024
Módosítás No Significant change
Nyers UARR 191400Z 02002MPS CAVOK 13/M03 Q1024 R04/CLRD70 NOSIG RMK QFE764/1019

VFR

13°C / -3°C

[Több]
Szél 30º variable 350º to 090º 4kt
Látási viszonyok >10km
Időjárás -
Felhők Clouds and Visibility OK
Légnyomás 1024
Módosítás No Significant change
Nyers UARR 191330Z 03002MPS 350V090 CAVOK 13/M03 Q1024 R04/CLRD70 NOSIG RMK QFE764/1019

VFR

14°C / -3°C

[Több]
Szél variable 2kt
Látási viszonyok >10km
Időjárás -
Felhők Clouds and Visibility OK
Légnyomás 1024
Módosítás No Significant change
Nyers UARR 191300Z VRB01MPS CAVOK 14/M03 Q1024 R04/CLRD70 NOSIG RMK QFE764/1019

VFR

14°C / -2°C

[Több]
Szél 30º variable 330º to 080º 6kt
Látási viszonyok >10km
Időjárás -
Felhők Clouds and Visibility OK
Légnyomás 1024
Módosítás No Significant change
Nyers UARR 191230Z 03003MPS 330V080 CAVOK 14/M02 Q1024 R04/CLRD70 NOSIG RMK QFE764/1019

VFR

13°C / -2°C

[Több]
Szél 360º variable 320º to 060º 4kt
Látási viszonyok >10km
Időjárás -
Felhők Clouds and Visibility OK
Légnyomás 1024
Módosítás No Significant change
Nyers UARR 191200Z 36002MPS 320V060 CAVOK 13/M02 Q1024 R04/CLRD70 NOSIG RMK QFE764/1019

VFR

14°C / -3°C

[Több]
Szél 50º variable 340º to 100º 4kt
Látási viszonyok >10km
Időjárás -
Felhők Clouds and Visibility OK
Légnyomás 1024
Módosítás No Significant change
Nyers UARR 191130Z 05002MPS 340V100 CAVOK 14/M03 Q1024 R04/CLRD70 NOSIG RMK QFE764/1019

VFR

14°C / -3°C

[Több]
Szél 10º variable 310º to 050º 6kt
Látási viszonyok >10km
Időjárás -
Felhők Clouds and Visibility OK
Légnyomás 1024
Módosítás No Significant change
Nyers UARR 191100Z 01003MPS 310V050 CAVOK 14/M03 Q1024 R04/CLRD70 NOSIG RMK QFE765/1020

VFR

13°C / -2°C

[Több]
Szél 10º variable 310º to 090º 4kt
Látási viszonyok >10km
Időjárás -
Felhők Clouds and Visibility OK
Légnyomás 1024
Módosítás No Significant change
Nyers UARR 191030Z 01002MPS 310V090 CAVOK 13/M02 Q1024 R04/CLRD70 NOSIG RMK QFE765/1020

VFR

13°C / -2°C

[Több]
Szél 360º variable 310º to 080º 6kt
Látási viszonyok >10km
Időjárás -
Felhők Clouds and Visibility OK
Légnyomás 1024
Módosítás No Significant change
Nyers UARR 191000Z 36003MPS 310V080 CAVOK 13/M02 Q1024 R04/CLRD70 NOSIG RMK QFE765/1020

VFR

13°C / -2°C

[Több]
Szél 360º 8kt
Látási viszonyok >10km
Időjárás -
Felhők Clouds and Visibility OK
Légnyomás 1024
Módosítás No Significant change
Nyers UARR 190930Z 36004MPS CAVOK 13/M02 Q1024 R04/CLRD70 NOSIG RMK QFE765/1020

VFR

12°C / -2°C

[Több]
Szél 340º 6kt
Látási viszonyok >10km
Időjárás -
Felhők Clouds and Visibility OK
Légnyomás 1025
Módosítás No Significant change
Nyers UARR 190900Z 34003MPS CAVOK 12/M02 Q1025 R04/CLRD70 NOSIG RMK QFE765/1020

VFR

12°C / -1°C

[Több]
Szél 10º variable 310º to 060º 6kt
Látási viszonyok >10km
Időjárás -
Felhők Clouds and Visibility OK
Légnyomás 1025
Módosítás No Significant change
Nyers UARR 190830Z 01003MPS 310V060 CAVOK 12/M01 Q1025 R04/CLRD70 NOSIG RMK QFE765/1020

VFR

11°C / -2°C

[Több]
Szél 40º variable 340º to 130º 6kt
Látási viszonyok >10km
Időjárás -
Felhők Clouds and Visibility OK
Légnyomás 1025
Módosítás No Significant change
Nyers UARR 190800Z 04003MPS 340V130 CAVOK 11/M02 Q1025 R04/CLRD70 NOSIG RMK QFE765/1020

VFR

11°C / -2°C

[Több]
Szél 340º 4kt
Látási viszonyok >10km
Időjárás -
Felhők Clouds and Visibility OK
Légnyomás 1025
Módosítás No Significant change
Nyers UARR 190730Z 34002MPS CAVOK 11/M02 Q1025 R04/CLRD70 NOSIG RMK QFE765/1020

TAF 51.15°É 51.54°K (UARR)-ért

From till


From till Wind variable 4kt. Visibility 10km or more. Nil Significant Cloud.
Temporarly from till Visibility 3100m. Mist . Scattered Clouds 1100ft.

Nyers: TAF UARR 191659Z 1918/2003 VRB02MPS CAVOK TEMPO 1921/2003 3100 BR SCT011

Aktuális műholdas és esőképek ezen a helyen: 51.15°É 51.54°K

A helyszín jelölő a következő helyen van elhelyezve: 51.15°É 51.54°K. [Több]

A valós idejű műholdas kép ötvözi a nappali látható fényt az éjszakai infravörös sugárzással. Éjjel a kép nem sötét, mivel az infravörös sugárzás képes érzékelni a hőmérséklet-különbségeket. Sajnos az alacsony felhőket és a ködöt nehéz megkülönböztetni a talaj hőmérsékletétől, így az éjszaka folyamán szinte láthatatlanok lehetnek. A Meteosat európai műholdképei valós időben frissülnek minden 5 percben. A GOES-16/GOES-17 (Észak- és Dél-Amerika) és Himawari (Ázsia) képei 10 percenként frissülnek.

Minden jog fenntartva 2021 EUMETSAT / meteoblue. / Minden jog fenntartva 2021 meteoblue

Radarkép és ultrarövid távú csapadék-előrejelzés a következő helyhez: 51.15°É 51.54°K

Szitálás
Enyhe
Mérsékelt
Erős
Nagyon nehéz
Jégeső

A helyzetjelző helye: 51.15°É 51.54°K. Ez az animáció bemutatja a csapadékradart az elmúlt órára vonatkozóan, valamint előrejelzést az elkövetkező 1 órára. A szitáló eső vagy enyhe hóesés láthatatlan lehet a radar számára. A csapadék intenzitása színkóddal van jelölve, a világoskéktől a narancssárgáig.